This is the latest recevied weather packets stored in our database for station/object OK2BOZ-1. If no packets are shown the sender has not sent any weather packets the latest 10 day(s).
| Time | Temp. | Humidity | Pressure | Rain* | Wind** | Luminosity | Snow |
|---|---|---|---|---|---|---|---|
| 1777556330 | 14.44° C | 32% | 1027.4 hPa | - | - | - | - |
| 1777556016 | 14.44° C | 32% | 1027.5 hPa | - | - | - | - |
| 1777555701 | 14.44° C | 31% | 1027.5 hPa | - | - | - | - |
| 1777555387 | 15° C | 31% | 1027.5 hPa | - | - | - | - |
| 1777555073 | 14.44° C | 30% | 1027.6 hPa | - | - | - | - |
| 1777554758 | 14.44° C | 32% | 1027.6 hPa | - | - | - | - |
| 1777553786 | 15° C | 31% | 1027.9 hPa | - | - | - | - |
| 1777553473 | 15° C | 30% | 1027.9 hPa | - | - | - | - |
| 1777553157 | 15.56° C | 29% | 1028 hPa | - | - | - | - |
| 1777552843 | 16.11° C | 30% | 1027.9 hPa | - | - | - | - |
| 1777552528 | 16.11° C | 28% | 1028 hPa | - | - | - | - |
| 1777552213 | 16.67° C | 28% | 1028.2 hPa | - | - | - | - |
| 1777551898 | 16.67° C | 28% | 1028.3 hPa | - | - | - | - |
| 1777551582 | 16.67° C | 29% | 1028.3 hPa | - | - | - | - |
| 1777551268 | 16.11° C | 28% | 1028.3 hPa | - | - | - | - |
| 1777550952 | 16.11° C | 29% | 1028.3 hPa | - | - | - | - |
| 1777550637 | 16.67° C | 28% | 1028.3 hPa | - | - | - | - |
| 1777550322 | 17.22° C | 29% | 1028.4 hPa | - | - | - | - |
| 1777550007 | 16.11° C | 29% | 1028.4 hPa | - | - | - | - |
| 1777549692 | 16.11° C | 30% | 1028.5 hPa | - | - | - | - |
| 1777549377 | 17.22° C | 28% | 1028.6 hPa | - | - | - | - |
| 1777549062 | 16.67° C | 28% | 1028.5 hPa | - | - | - | - |
| 1777548747 | 16.11° C | 30% | 1028.5 hPa | - | - | - | - |
| 1777548432 | 16.11° C | 30% | 1028.6 hPa | - | - | - | - |
| 1777548117 | 15.56° C | 30% | 1028.7 hPa | - | - | - | - |
* Rain since midnight (hover to see other rain measurements)
** Current wind speed in m/s (hover to see current wind gust speed)